STARLINK-35220

Satellite information

Favourite Embed

Satellite Type and Status

PAYLOADIN ORBIT

Key statistics

Satellite STARLINK-35220 at a glance.

Uptime

30

Days in orbit

Revolutions

≈ 15.5

Per day

Orbit

SSO

Sun Synchronous Orbit

Inclination

97.6

Latest

Satellite identification and parameters

Extended collection of information and parameters for STARLINK-35220.

Object identification

Identified? True

Debris? False

Object name: STARLINK-35220

International designator: 2025-211K

Object number (NORAD): 65661

Object ID (CCSDS): 65661

Country: UNITED STATES OF AMERICA (US)

Current information (Y/N): Y

Orbital parameters

Period: 93.059 minutes

Inclination: 97.6045 deg

SMA: 6802.442 km

Apoapsis: 424.835 km

Periapsis: 423.779 km

RAAN: 334.069 deg

Eccentricy: 0.00007763

Argument of periapsis: 129.7093 deg

Mean anomaly: 230.4225 deg

Mean motion: 15.47410252 rev/day

Mean motion (dot): -0.0051749 rev/day2

B* drag term: -0.010803049 1/REarth

Two-line elements (TLE)

Creation date: Oct. 19, 2025, 2:20 a.m.

Reference frame: TEME

Reference center: EARTH

Epoch: Oct. 18, 2025, 10:07 p.m. UTC

TLE line 0: 0 STARLINK-35220

TLE line 1: 1 65661U 25211K 25291.92154491 -.00517490 00000-0 -10803-1 0 9990

TLE line 2: 2 65661 97.6045 334.0690 0000776 129.7093 230.4225 15.47410252 5692

Live tracking on map

Real-time ground track for satellite STARLINK-35220.

In-orbit conjunctions

There are no conjunctions computed for STARLINK-35220, at the moment. Check back to stay up to date, as we update our databases every day.

Go to all conjunctions

Associated space launch

A batch of 24 satellites for the Starlink mega-constellation - SpaceX's project for space-based Internet communication system.

STARLINK-35220 was lifted into orbit during the mission ‘Falcon 9 Block 5 | Starlink Group 17-12’, on board a Falcon 9 space rocket.

The launch took place on Sept. 19, 2025, 4:31 p.m. from Space Launch Complex 4E.

For more information about the launch, click the button.

Launch to space Falcon 9 Block 5 | Starlink Group 17-12
Falcon 9 Block 5 | Starlink Group 17-12

Agency: SpaceX

Status: Launch Successful

Launch date: Sept. 19, 2025, 4:31 p.m. UTC

Rocket: Falcon 9

Launch pad: Space Launch Complex 4E

Location: Vandenberg SFB, CA, USA

...

Latest news about this satellite

News about space launch
Live coverage: SpaceX to launch 24 Starlink satellites on Falcon 9 rocket from Vandenberg SFB

The Starlink 17-12 mission will send the two dozen broadband internet satellites into a polar, low Earth orbit. SpaceX is targeting liftoff from pad 4E at Vandenberg Space Force Base at 8:43 a.m. PDT (11:43 a.m. EDT / 1543 UTC).

News about space launch
Launch Roundup: Starlink, NRO, and New Shepard missions scheduled

Another busy week of launches has arrived, with SpaceX dominating the launch manifest with four… The post Launch Roundup: Starlink, NRO, and New Shepard missions scheduled appeared first on NASASpaceFlight.com.


Newsletter sign-up

Weekly statistics, charts and insights to help you stay on top of the space industry.